Regional Weather Roundup
Issued by NWS Newport/Morehead, NC

Current Version | Previous Version | Text Only | Print | Product List | Glossary On
Versions: 1 2 3 4 5 6 7 8 9 10 11 12 13 14 15 16 17 18 19 20 21 22 23 24 25 26 27 28 29 30 31 32 33 34 35 36 37 38 39 40 41 42 43 44 45 46 47 48 49 50
000
ASUS42 KMHX 301013
RWRMHX
WEATHER ROUNDUP FOR EASTERN NORTH CAROLINA
NATIONAL WEATHER SERVICE NEWPORT/MOREHEAD CITY NC
600 AM EDT FRI SEP 30 2016

NOTE: "FAIR" INDICATES FEW OR NO CLOUDS BELOW 12,000 FEET
WITH NO SIGNIFICANT WEATHER AND/OR OBSTRUCTIONS TO VISIBILITY

NCZ015>017-031-032-045>047-102-103-301100-
NORTH COAST

CITY           SKY/WX    TMP DP  RH WIND       PRES   REMARKS
EDENTON        FOG       72  72 100 CALM      30.03S VSB 1/4
ELIZABETH CITY CLOUDY    71  71 100 NE5       30.03S
KITTY HAWK     SUNNY     72  72 100 CALM      30.01S
MANTEO         FOG       69  69 100 CALM      30.03S VSB 3/4

$$

NCZ045>047-081-094-103-104-301100-
CENTRAL COAST

CITY           SKY/WX    TMP DP  RH WIND       PRES   REMARKS
FRISCO         CLEAR     73  72  96 E3        30.03R

$$

NCZ095-097-098-100-101-301100-
SOUTHERN COAST

CITY           SKY/WX    TMP DP  RH WIND       PRES   REMARKS
BEAUFORT       LGT RAIN  76  73  91 CALM      30.00R
CEDAR ISLAND   NOT AVBL
JACKSONVILLE   CLEAR     71  69  93 CALM      29.99R
PINEY ISLAND   MOSUNNY  N/A N/A N/A E6        30.01
WILMINGTON     CLEAR     73  72  96 E3        29.98R


$$

NCZ011>013-027>030-043-044-078>080-089-090>093-098-301100-
COASTAL PLAIN

CITY           SKY/WX    TMP DP  RH WIND       PRES   REMARKS
AHOSKIE        CLOUDY    69  68  99 N3        30.04R FOG
CLINTON        CLEAR     71  71 100 CALM      29.98S FOG
ELIZABETHTOWN  CLOUDY    70  70 100 CALM      29.97S FOG
GOLDSBORO      FOG       70  70 100 E6        29.98R VSB 1
GREENVILLE     RAIN      72  72 100 CALM      30.02F VSB 3/4
HAVELOCK       CLEAR     71  70  96 CALM      30.01R
KENANSVILLE    CLOUDY    68  68 100 CALM      29.99R FOG
KINSTON        FOG       71  71  99 CALM      30.01R VSB 1/4
NEW BERN       CLEAR     70  68  93 CALM      30.01R FOG
RICHLANDS      PTCLDY    68  68 100 NE5       30.00R
ROCKY MOUNT    CLOUDY    72  72 100 E5        30.01S FOG
WASHINGTON     FOG       70  70  99 CALM      30.01S VSB 1/2
WHITEVILLE     NOT AVBL

$$

AMZ130-135-150-152-154-156-158-170-250-252-270-ANZ085-086-088-633-658-670-301100-
MARINE OBSERVATIONS

STATION/POSITION TIME  TEMP    WIND        PRES    WAVE   SWELL
                       AIR SEA DIR/SP/G            HT/PER HT/PER
                 (UTC) (F)     (DEG/KT/KT) (MB)    (FT/S) (FT/S)
CHESAPEAKE LIGHT NOT AVBL
64 E VA BEACH    0950   74 73  240/  2/  4 1016.7    8/10   8/10
DUCK             0942   75 76   10/  1/  2 1016.2
2 E DUCK         0941      76                N/A     6/10   3/11
OREGON INLET     0948   74 78     CALM     1016.7
13E OREGON INLT  1000      76                N/A     6/10   7/10
HATTERAS CG      0948   77 79  120/  2/  4 1016.4
DIAMOND BUOY     0950   79 76  190/  4/  4 1016.4    4/ 8   3/ 8
CAPE LOOKOUT     1000   78     170/ 13/ 15 1015.9
BEAUFORT LAB     0948   77 77   CALM  /  3 1015.3
30 SE NEW RVR IN 0908   82 82  200/ 12/ 16 1015.1
30 SE NEW RVR IN 0955      82                N/A     4/ 5
27 SE WRIGHTSVLE 0908   81 81  200/ 10/ 14 1015.0
5 SE WRIGHTSVLE  NOT AVBL
225 S CAPE HAT   0950   81 83  200/ 14/ 16 1017.2    4/ 5   2/ 8
41 SE CHARLESTON 0950   78 82  230/ 12/ 17 1013.5    4/ 5   2/ 9

$$



USA.gov is the U.S. government's official web portal to all federal, state and local government web resources and services.